| time (UTC) | temp F | wind direction | speed knots | gust knots | rain 1hr in | rain 24hr in | rain mn in | humidity % | barometer mb |
| 20260903180044 | 63 | 192 | 1.7 | 7.8 | 0.00 | 0.02 | 0.00 | 63 | 1009.3 |
| 20260903174533 | 63 | 202 | 0.0 | 4.3 | 0.00 | 0.02 | 0.00 | 64 | 1009.1 |
| 20260903173032 | 63 | 70 | 0.0 | 6.1 | 0.00 | 0.02 | 0.00 | 64 | 1008.9 |
| 20260903171530 | 64 | 195 | 0.9 | 8.7 | 0.00 | 0.02 | 0.00 | 62 | 1008.9 |
| 20260903170027 | 62 | 205 | 2.6 | 6.1 | 0.00 | 0.02 | 0.00 | 66 | 1008.8 |
| 20260903164526 | 62 | 162 | 3.5 | 7.8 | 0.00 | 0.02 | 0.00 | 66 | 1008.7 |
| 20260903163030 | 61 | 175 | 2.6 | 9.6 | 0.00 | 0.02 | 0.00 | 67 | 1008.7 |
| 20260903161522 | 61 | 243 | 1.7 | 5.2 | 0.00 | 0.02 | 0.00 | 67 | 1008.7 |
| 20260903160022 | 61 | 360 | 0.0 | 1.7 | 0.00 | 0.02 | 0.00 | 69 | 1008.6 |
| 20260903154516 | 60 | 190 | 0.9 | 3.5 | 0.00 | 0.02 | 0.00 | 69 | 1008.5 |
| 20260903153014 | 60 | 165 | 0.0 | 5.2 | 0.00 | 0.02 | 0.00 | 69 | 1008.6 |
| 20260903151514 | 59 | 173 | 0.0 | 2.6 | 0.00 | 0.02 | 0.00 | 70 | 1008.4 |
| 20260903150013 | 59 | 206 | 0.0 | 3.5 | 0.00 | 0.02 | 0.00 | 70 | 1008.3 |
| 20260903144509 | 59 | 186 | 0.0 | 7.0 | 0.00 | 0.02 | 0.00 | 70 | 1008.2 |
| 20260903143008 | 59 | 180 | 0.0 | 1.7 | 0.00 | 0.02 | 0.00 | 72 | 1008.1 |
| 20260903141509 | 59 | 207 | 0.0 | 7.8 | 0.00 | 0.02 | 0.00 | 72 | 1008.1 |
| 20260903140005 | 58 | 139 | 0.9 | 3.5 | 0.00 | 0.02 | 0.00 | 73 | 1008.0 |
| 20260903134600 | 57 | 198 | 0.0 | 1.7 | 0.00 | 0.02 | 0.00 | 73 | 1007.8 |
| 20260903133110 | 58 | 192 | 0.0 | 0.9 | 0.00 | 0.02 | 0.00 | 73 | 1007.6 |
| 20260903131609 | 58 | 192 | 0.0 | 0.9 | 0.00 | 0.02 | 0.00 | 73 | 1007.6 |
| 20260903130114 | 57 | 114 | 0.0 | 1.7 | 0.00 | 0.02 | 0.00 | 73 | 1007.4 |
| 20260903124556 | 57 | 114 | 0.0 | 1.7 | 0.00 | 0.02 | 0.00 | 73 | 1007.2 |
| 20260903123054 | 58 | 238 | 0.0 | 1.7 | 0.00 | 0.02 | 0.00 | 72 | 1007.3 |
| 20260903121552 | 58 | 238 | 0.0 | 6.1 | 0.00 | 0.02 | 0.00 | 71 | 1007.2 |
| 20260903120051 | 58 | 164 | 0.9 | 2.6 | 0.00 | 0.02 | 0.00 | 71 | 1007.3 |
| 20260903114549 | 58 | 153 | 1.7 | 9.6 | 0.00 | 0.02 | 0.00 | 72 | 1007.1 |
| 20260903113047 | 58 | 47 | 0.0 | 0.9 | 0.00 | 0.02 | 0.00 | 71 | 1007.0 |
| 20260903111545 | 59 | 333 | 0.0 | 4.3 | 0.00 | 0.02 | 0.00 | 71 | 1006.8 |
| 20260903110044 | 59 | 337 | 0.0 | 2.6 | 0.00 | 0.02 | 0.00 | 70 | 1006.8 |
| 20260903104542 | 59 | 217 | 1.7 | 9.6 | 0.00 | 0.02 | 0.00 | 71 | 1006.7 |
| 20260903103041 | 59 | 169 | 0.0 | 4.3 | 0.00 | 0.02 | 0.00 | 69 | 1006.5 |
| 20260903101540 | 59 | 177 | 0.9 | 8.7 | 0.00 | 0.02 | 0.00 | 69 | 1006.4 |
| 20260903100039 | 59 | 180 | 1.7 | 7.0 | 0.00 | 0.02 | 0.00 | 70 | 1006.2 |
| 20260903094537 | 59 | 96 | 0.0 | 8.7 | 0.00 | 0.02 | 0.00 | 70 | 1006.3 |
| 20260903093042 | 59 | 102 | 0.0 | 7.0 | 0.00 | 0.02 | 0.00 | 69 | 1006.2 |
| 20260903091538 | 59 | 65 | 0.9 | 7.8 | 0.00 | 0.02 | 0.00 | 69 | 1006.3 |
| 20260903090036 | 59 | 180 | 0.0 | 3.5 | 0.00 | 0.02 | 0.00 | 69 | 1006.2 |
| 20260903084533 | 60 | 140 | 0.9 | 5.2 | 0.00 | 0.02 | 0.00 | 69 | 1006.4 |
| 20260903083043 | 60 | 215 | 0.9 | 4.3 | 0.00 | 0.02 | 0.00 | 70 | 1006.4 |
| 20260903081532 | 60 | 182 | 0.9 | 5.2 | 0.00 | 0.02 | 0.00 | 70 | 1006.3 |
| 20260903080031 | 60 | 109 | 0.0 | 8.7 | 0.00 | 0.02 | 0.00 | 70 | 1006.4 |
| 20260903074528 | 59 | 168 | 0.9 | 7.0 | 0.00 | 0.02 | 0.00 | 71 | 1006.3 |
| 20260903073032 | 60 | 143 | 2.6 | 13.0 | 0.00 | 0.02 | 0.00 | 72 | 1006.1 |
| 20260903071527 | 60 | 191 | 2.6 | 7.0 | 0.00 | 0.02 | 0.00 | 73 | 1005.9 |
| 20260903070022 | 60 | 153 | 1.7 | 8.7 | 0.00 | 0.02 | 0.00 | 73 | 1005.8 |
| 20260903064528 | 60 | 146 | 0.9 | 7.0 | 0.00 | 0.02 | 0.02 | 73 | 1006.0 |
| 20260903063021 | 60 | 181 | 1.7 | 9.6 | 0.00 | 0.02 | 0.02 | 73 | 1005.9 |
| 20260903061524 | 60 | 188 | 1.7 | 9.6 | 0.00 | 0.02 | 0.02 | 73 | 1005.9 |
| 20260903060020 | 60 | 153 | 0.0 | 12.2 | 0.00 | 0.02 | 0.02 | 74 | 1005.8 |
| 20260903054521 | 60 | 123 | 2.6 | 14.8 | 0.00 | 0.02 | 0.02 | 74 | 1005.8 |
| 20260903053018 | 60 | 173 | 3.5 | 12.2 | 0.00 | 0.02 | 0.02 | 75 | 1005.9 |
| 20260903051518 | 60 | 136 | 0.9 | 8.7 | 0.00 | 0.02 | 0.02 | 76 | 1005.7 |
| 20260903050017 | 60 | 184 | 4.3 | 12.2 | 0.00 | 0.02 | 0.02 | 75 | 1005.6 |
| 20260903044514 | 60 | 200 | 3.5 | 10.4 | 0.00 | 0.02 | 0.02 | 75 | 1005.4 |
| 20260903043015 | 60 | 145 | 3.5 | 11.3 | 0.00 | 0.02 | 0.02 | 75 | 1005.1 |
| 20260903041516 | 60 | 79 | 2.6 | 14.8 | 0.00 | 0.02 | 0.02 | 74 | 1005.0 |
| 20260903040013 | 61 | 180 | 4.3 | 12.2 | 0.00 | 0.02 | 0.02 | 75 | 1004.8 |
| 20260903034512 | 61 | 167 | 3.5 | 18.2 | 0.00 | 0.02 | 0.02 | 74 | 1004.2 |
| 20260903033014 | 62 | 167 | 4.3 | 14.8 | 0.00 | 0.02 | 0.02 | 73 | 1003.8 |
| 20260903031510 | 62 | 180 | 3.5 | 11.3 | 0.00 | 0.02 | 0.02 | 72 | 1003.5 |
| 20260903030011 | 63 | 175 | 5.2 | 13.9 | 0.00 | 0.02 | 0.02 | 70 | 1002.8 |
| 20260903024509 | 63 | 194 | 3.5 | 15.6 | 0.00 | 0.02 | 0.02 | 70 | 1002.4 |
| 20260903023009 | 63 | 200 | 1.7 | 13.0 | 0.00 | 0.02 | 0.02 | 71 | 1002.0 |
| 20260903021513 | 62 | 211 | 0.0 | 9.6 | 0.00 | 0.02 | 0.02 | 72 | 1002.0 |
| 20260903020008 | 62 | 195 | 1.7 | 14.8 | 0.01 | 0.02 | 0.02 | 72 | 1002.1 |
| 20260903014507 | 62 | 160 | 3.5 | 15.6 | 0.01 | 0.02 | 0.02 | 73 | 1002.1 |
| 20260903013006 | 62 | 194 | 4.3 | 12.2 | 0.02 | 0.02 | 0.02 | 75 | 1002.0 |
| 20260903011506 | 59 | 159 | 2.6 | 8.7 | 0.02 | 0.02 | 0.02 | 81 | 1002.0 |
| 20260903010004 | 59 | 193 | 1.7 | 7.0 | 0.01 | 0.01 | 0.01 | 84 | 1002.1 |
| 20260903004600 | 60 | 196 | 1.7 | 8.7 | 0.01 | 0.01 | 0.01 | 82 | 1002.5 |
| 20260903004502 | 60 | 173 | 2.6 | 8.7 | 0.01 | 0.01 | 0.01 | 81 | 1002.5 |
| 20260903003058 | 61 | 108 | 2.6 | 10.4 | 0.00 | 0.00 | 0.00 | 77 | 1002.6 |
| 20260903001557 | 61 | 154 | 4.3 | 13.0 | 0.00 | 0.00 | 0.00 | 77 | 1002.7 |
| 20260903000055 | 62 | 139 | 2.6 | 12.2 | 0.00 | 0.00 | 0.00 | 74 | 1002.9 |
| 20260902234604 | 62 | 169 | 3.5 | 13.9 | 0.00 | 0.00 | 0.00 | 74 | 1002.7 |
| 20260902233053 | 63 | 198 | 3.5 | 15.6 | 0.00 | 0.00 | 0.00 | 72 | 1002.8 |
| 20260902231555 | 64 | 152 | 3.5 | 13.0 | 0.00 | 0.00 | 0.00 | 67 | 1002.7 |
| 20260902230051 | 65 | 126 | 1.7 | 12.2 | 0.00 | 0.00 | 0.00 | 67 | 1002.7 |
| 20260902224550 | 65 | 208 | 3.5 | 13.0 | 0.00 | 0.00 | 0.00 | 66 | 1002.5 |
| 20260902223053 | 66 | 178 | 4.3 | 17.4 | 0.00 | 0.00 | 0.00 | 63 | 1002.4 |
| 20260902221550 | 65 | 156 | 4.3 | 12.2 | 0.00 | 0.00 | 0.00 | 65 | 1002.3 |
| 20260902220048 | 63 | 157 | 4.3 | 10.4 | 0.00 | 0.00 | 0.00 | 70 | 1002.5 |
| 20260902214546 | 64 | 161 | 4.3 | 10.4 | 0.00 | 0.00 | 0.00 | 72 | 1002.7 |
| 20260902213045 | 69 | 182 | 4.3 | 13.0 | 0.00 | 0.00 | 0.00 | 56 | 1002.6 |
| 20260902211544 | 68 | 217 | 0.9 | 13.0 | 0.00 | 0.00 | 0.00 | 59 | 1002.4 |
| 20260902210043 | 68 | 173 | 1.7 | 7.8 | 0.00 | 0.00 | 0.00 | 59 | 1002.7 |
| 20260902204541 | 69 | 181 | 0.9 | 6.1 | 0.00 | 0.00 | 0.00 | 59 | 1002.8 |
| 20260902203039 | 69 | 161 | 2.6 | 7.8 | 0.00 | 0.00 | 0.00 | 58 | 1002.8 |
| 20260902201547 | 69 | 192 | 1.7 | 4.3 | 0.00 | 0.00 | 0.00 | 58 | 1003.0 |
| 20260902200037 | 68 | 163 | 2.6 | 9.6 | 0.00 | 0.00 | 0.00 | 58 | 1003.2 |
| 20260902194535 | 69 | 212 | 2.6 | 10.4 | 0.00 | 0.00 | 0.00 | 58 | 1003.4 |
| 20260902193034 | 69 | 171 | 1.7 | 8.7 | 0.00 | 0.00 | 0.00 | 60 | 1003.4 |
| 20260902191535 | 68 | 186 | 2.6 | 7.0 | 0.00 | 0.00 | 0.00 | 60 | 1003.6 |
| 20260902190033 | 70 | 184 | 1.7 | 7.0 | 0.00 | 0.00 | 0.00 | 56 | 1003.6 |
| 20260902184531 | 69 | 209 | 2.6 | 9.6 | 0.00 | 0.00 | 0.00 | 55 | 1003.8 |
| 20260902183030 | 69 | 170 | 1.7 | 6.1 | 0.00 | 0.00 | 0.00 | 56 | 1003.8 |
| 20260902181531 | 69 | 79 | 3.5 | 13.0 | 0.00 | 0.00 | 0.00 | 56 | 1004.0 |